Location: El Águila
(10.4167°N, 66.7167°W)
Time: 14:56:58
(UTC+00:00)

CZ-3C R/B - Pass Details

Date: 31 March 2023
Orbit: 253 x 32126 km, 20.0° (Epoch: 28 May)

Event Time Altitude Azimuth Distance (km) Brightness Sun altitude
Rises 21:13:18 0° 207° (SSW) 3,600 5.8 19.9°
Reaches altitude 10° 21:15:17 10° 193° (SSW) 3,290 5.5 19.4°
Maximum altitude 03:56:59 34° 74° (ENE) 28,851 9.6 -72.9°
Drops below altitude 10° 05:40:05 10° 84° (E) 15,179 8.7 -67.2°
Sets 05:50:17 0° 86° (E) 13,737 8.7 -65.3°
